This demonstration page uses our WeatherBlox Daily Observations layout. Learn more.

41.55636, -103.73856

Hourly Observations for August 2, 2019

Temp ( °F °C ) Dew Point ( °F °C ) Humidity (%) Winds ( mph kmh ) Pressure ( in mb ) Visibility ( mi km ) Precip ( " mm )
12:58 am 00:58 Mostly Cloudy 68 20 58 14.2 69 69 SSE 12 19 30.06 1018 10 16.0934 0 0
1:58 am 01:58 Mostly Cloudy 66 19 57 13.8 72 72 SE 8 13 30.06 1018 10 16.0934 0 0
2:58 am 02:58 Mostly Cloudy 67 19.2 63 17.4 89 89 S 18 30 30.09 1019 7 11.26538 0 0
3:58 am 03:58 Mostly Cloudy with Light Rain 63 17.1 59 15.2 89 89 S 10 17 30.09 1019 10 16.0934 0.01 0.254
4:58 am 04:58 Mostly Cloudy 64 17.8 61 16.2 90 90 SSW 14 22 30.06 1018 10 16.0934 0 0
5:58 am 05:58 Mostly Cloudy 64 17.6 60 15.5 88 88 SSW 14 22 30.05 1018 10 16.0934 0 0
6:58 am 06:58 Clear 61 16.3 59 14.9 91 91 SW 13 20 30.04 1017 10 16.0934 0 0
8:58 am 08:58 Mostly Cloudy 63 17.3 58 14.6 84 84 N 9 15 30 1016 10 16.0934 0 0
9:58 am 09:58 Clear 61 16 56 13.6 86 86 Calm 30 1016 10 16.0934 0 0
10:58 am 10:58 Clear 58 14.4 54 12 86 86 WNW 7 11 30.04 1017 10 16.0934 0 0
11:58 am 11:58 Sunny 58 14.5 55 12.5 88 88 NW 7 11 30.05 1018 10 16.0934 0 0
12:58 pm 12:58 Sunny 60 15.7 55 13 84 84 NW 10 17 30.06 1018 10 16.0934 0 0
1:58 pm 13:58 Sunny 65 18.3 56 13.6 74 74 WNW 7 11 30.07 1018 10 16.0934 0 0
2:58 pm 14:58 Sunny 70 21 58 14.2 65 65 NNW 13 20 30.06 1018 10 16.0934 0 0
3:58 pm 15:58 Sunny 72 22.4 59 14.9 63 63 NNW 9 15 30.08 1019 10 16.0934 0 0
4:58 pm 16:58 Sunny 74 23.5 60 15.3 60 60 NNW 12 19 30.09 1019 10 16.0934 0 0
5:58 pm 17:58 Sunny 78 25.5 61 15.9 55 55 N 13 20 30.07 1018 10 16.0934 0 0
6:58 pm 18:58 Sunny 79 26.1 58 14.7 50 50 NNW 14 22 30.08 1019 10 16.0934 0 0
7:58 pm 19:58 Sunny 79 26.3 58 14.5 48 48 NNW 8 13 30.08 1019 10 16.0934 0 0
8:58 pm 20:58 Sunny 81 27.3 56 13.6 43 43 NNE 8 13 30.06 1018 10 16.0934 0 0
9:58 pm 21:58 Sunny 82 27.9 51 10.6 34 34 NE 10 17 30.05 1018 10 16.0934 0 0
10:58 pm 22:58 Sunny 82 28 53 11.4 36 36 NNE 8 13 30.05 1018 10 16.0934 0 0
11:58 pm 23:58 Sunny 81 27.4 53 11.7 38 38 ENE 13 20 30.06 1018 10 16.0934 0 0

Powered by AerisWeather